Home   Weather   Clarington   Past weeks

Flag for Canada Past Weather in Clarington, Ontario, Canada — Yesterday and Last 2 Weeks

Now
73 °F

Partly sunny.


Feels Like: 77 °F
Forecast: 58 / 72 °F
Wind: 12 mph from Southeast

Location: Peterborough Airport

Current Time: Sep 28, 2016 at 2:53:54 PM

Latest Report: Sep 28, 2016 at 2:00 PM


Visibility: 9 mi

Pressure: 30.10 "Hg

Humidity: 31%

Dew Point: 41 °F

Location of ClaringtonLocation

Past Weather in Clarington — Graph

°F

Clarington Temperature Yesterday

Maximum temperature yesterday: 66 °F (at 1:00 PM)
Minimum temperature yesterday: 37 °F (at 5:00 AM)
Average temperature yesterday: 52 °F

High & Low Weather Summary for the Past Weeks

 TemperatureHumidityPressure
High81 °F (Sep 22, 1:00 PM)100% (Sep 15, 12:00 AM)30.39 "Hg (Sep 15, 12:00 AM)
Low30 °F (Sep 25, 6:00 AM)31% (Sep 20, 6:00 PM)29.77 "Hg (Sep 27, 2:00 PM)
Average58 °F81%30.08 "Hg
* Reported Sep 13 1:00 PM — Sep 28 1:00 PM, Clarington, Weather by CustomWeather, © 2016

Note: Actual official high and low records may vary slightly from our data, if they occured in-between our weather recording intervals... More about our weather records

Advertising

Clarington Weather History for the Previous 24 Hours

Scroll right to see more
 ConditionsComfort  
Time TempWeatherWind HumidityBarometerVisibility
1:00 PM
Wed, Sep 28
73 °FPartly sunny.12 mph36%30.09 "Hg9 mi
12:00 PM72 °FPassing clouds.14 mph38%30.08 "Hg9 mi
11:00 AM70 °FPassing clouds.13 mph50%30.06 "Hg9 mi
10:00 AM63 °FSunny.3 mph77%30.05 "Hg9 mi
9:00 AM57 °FSunny.2 mph88%30.03 "Hg9 mi
8:00 AM43 °FFog.2 mph100%30.02 "Hg0 mi
7:00 AM46 °FFog.2 mph100%30.00 "Hg1 mi
6:00 AM46 °FOvercast.No wind100%29.98 "Hg9 mi
5:00 AM46 °FMostly cloudy.No wind100%29.95 "Hg9 mi
4:00 AM46 °FMostly cloudy.No wind100%29.94 "Hg9 mi
3:00 AM46 °FOvercast.No wind100%29.93 "Hg9 mi
2:00 AM45 °FMostly cloudy.No wind100%29.92 "Hg9 mi
1:00 AM43 °FClear.No wind100%29.91 "Hg9 mi
12:00 AM45 °FPartly cloudy.No wind100%29.90 "Hg9 mi
11:00 PM
Tue, Sep 27
46 °FPassing clouds.2 mph100%29.89 "Hg9 mi
10:00 PM48 °FPassing clouds.3 mph100%29.87 "Hg9 mi
9:00 PM48 °FPassing clouds.2 mph100%29.85 "Hg9 mi
8:00 PM55 °FClear.5 mph82%29.85 "Hg9 mi
7:00 PM59 °FClear.6 mph68%29.83 "Hg9 mi
6:00 PM64 °FSunny.8 mph56%29.80 "Hg9 mi
5:00 PM66 °FMore clouds than sun.14 mph52%29.79 "Hg9 mi
4:00 PM64 °FOvercast.14 mph56%29.79 "Hg9 mi
3:00 PM66 °FOvercast.17 mph56%29.78 "Hg9 mi
2:00 PM64 °FScattered clouds.16 mph60%29.77 "Hg9 mi
Weather by CustomWeather, © 2016

See weather overviewHow to use our weather pages